Regional Weather Roundup
Issued by NWS Lake Charles, LA

Home | Current Version | Previous Version | Text Only | Print | Product List | Glossary On
Versions: 1 2 3 4 5 6 7 8 9 10 11 12 13 14 15 16 17 18 19 20 21 22 23 24 25
000
ASUS44 KLCH 120810
RWRLCH
REGIONAL WEATHER ROUNDUP
NATIONAL WEATHER SERVICE LAKE CHARLES LA
200 AM CST TUE DEC 12 2017

Note: "fair" indicates few or no clouds below 12,000 feet with no
significant weather and/or obstructions to visibility.


ACROSS SOUTHEAST TEXAS

CITY           SKY/WX    TMP DP  RH WIND       PRES   REMARKS
BEAUMONT       CLEAR     45  41  86 W5        30.15S
BEAUMONT CITY  FAIR      48  42  79 SW5       30.15S
ORANGE         SUNNY     52  46  77 W5        30.16S
JASPER         CLEAR     39  38  97 CALM      30.18R
$$

ACROSS CENTRAL LOUISIANA

CITY           SKY/WX    TMP DP  RH WIND       PRES   REMARKS
LEESVILLE      CLEAR     50  37  60 W7        30.12R
FULLERTON      FAIR      52  37  56 CALM      30.09R
ALEXANDRIA INT CLEAR     46  37  71 W8        30.09R
ESLER FIELD    CLEAR     44  37  76 W7        30.10R
DERIDDER       FAIR     N/A N/A N/A W7        30.15R
OAKDALE        MOSUNNY   39  37  91 CALM      30.12R
OPELOUSAS      FAIR      46  43  88 W3        30.10F
$$

ACROSS SOUTHWEST AND SOUTH CENTRAL LOUISIANA

CITY           SKY/WX    TMP DP  RH WIND       PRES   REMARKS
SULPHUR        SUNNY     48  44  85 W3        30.14S
LAKE CHARLES   CLEAR     52  46  80 W7        30.13S
CHENNAULT INT  CLEAR     52  44  74 W7        30.13S
CAMERON PHI    SUNNY     55  52  88 W7        30.15S
DEQUINCY       FAIR      49  41  72 CALM      30.13S
JENNINGS       FAIR      49  46  87 SW5       30.13R
LAFAYETTE      CLEAR     51  48  89 W8        30.12R
NEW IBERIA     PTCLDY    52  46  80 W9        30.12S
ABBEVILLE      FAIR      53  52  97 W10       30.13R
PATTERSON      CLEAR     54  50  86 SW9       30.13S
SALT POINT       N/A     53  52  96 W5        30.11F
$$

SELECTED SITES ACROSS THE REGION

CITY           SKY/WX    TMP DP  RH WIND       PRES   REMARKS
HOUSTON BUSH   PTCLDY    49  42  77 SW5       30.17S
HOUSTON HOBBY  PTCLDY    49  42  77 W6        30.17F
GALVESTON      PTCLDY    53  48  83 SW6       30.19S
COLLEGE STAT   CLEAR     51  36  56 NW8       30.20R
CONROE         CLEAR     38  38 100 CALM      30.17R
HUNTSVILLE     CLEAR     54  33  45 NW6       30.19R
LUFKIN         CLEAR     39  35  86 CALM      30.17R
SHREVEPORT     CLEAR     53  24  32 NW8       30.14R
MONROE         PTCLDY    52  31  44 NW9       30.10R
NATCHEZ MS     CLEAR     51  40  65 W8        30.08R
BATON ROUGE    CLEAR     47  42  83 W6        30.09S
N.O. INTL ARPT CLEAR     51  48  89 SW8       30.10S
SLIDELL        CLEAR     51  47  86 SW5       30.07F
$$

MARINE REPORTS

STATION/POSITION TIME  SKY/WX   TEMP    WIND        PRES    VSBY
                                AIR SEA DIR/SP/G
                 (UTC)          (F)     (DEG/KT/KT) (MB)    (MI)
BUOY 30 S HIGH I 0650            62 61  270/ 14/ 17 1021.6
WVE H/P(F/S)=  2/ 4

SEA RIM ST PARK  0800            47     260/  8/  9 1021.5F
PORT ARTHUR      0748            56 56  260/ 10/ 15 1020.8F
SABINE PASS N    0748            52 57  250/  6/ 12 1022.4F
TEXAS POINT      NOT AVBL
CALCASIEU PASS   0748            56 55  280/  7/  9 1019.4F
LK CHARLES BEACH 0748            56 57              1019.8R
MARSH ISLAND     0700            63                   N/A
FRESH WATER LOCK 0748            59 54  250/  9/ 13 1020.4S
AMERADA PASS     0748            56 54  220/  3/ 10 1019.9F
$$




USA.gov is the U.S. government's official web portal to all federal, state and local government web resources and services.